Weather History for St. Johnsbury, VT

Change the Weather History Date:

Monday, January 28, 2013

  Actual Average Record
Temperature  
Mean Temperature 5 °F 16 °F  
Max Temperature 15 °F 28 °F 53 °F (1916)
Min Temperature -6 °F 6 °F -31 °F (1935)
Degree Days  
Heating Degree Days 60 49  
Month to date heating degree days 1373 1355  
Since 1 July heating degree days 4190 4308  
Moisture  
Dew Point 1 °F    
Average Humidity 77    
Maximum Humidity 92    
Minimum Humidity 62    
Precipitation  
Precipitation 0.31 in 0.08 in 1.22 in (1976)
Month to date precipitation 1.11 2.27  
Year to date precipitation 1.11 2.27  
Sea Level Pressure  
Sea Level Pressure 30.30 in    
Wind  
Wind Speed - (North)    
Max Wind Speed -    
Max Gust Speed -    
T = Trace of Precipitation, MM = Missing Value Source: NWS Daily Summary

Daily Weather History Graph

Daily Weather History Graph

Search for Another Location

Airport:

Trip Planner

Search our weather history database for the weather conditions in past years. The results will help you decide how hot, cold, wet, or windy it might be!

Date:

Astronomy

Jan. 28, 2013 Rise Set
Actual Time 7:10 AM EST 4:52 PM EST
Civil Twilight 6:39 AM EST 5:23 PM EST
Nautical Twilight 6:04 AM EST 5:58 PM EST
Astronomical Twilight 5:30 AM EST 6:32 PM EST
Moon 6:50 PM EST (1/28) 7:29 AM EST (1/28)
Length of Visible Light 10h 44m
Length of Day
9h 41m
Full, 98% of the Moon is Illuminated
Jan 28
Full
Feb 3
Last Quarter
Feb 10
New
Feb 17
First Quarter
Feb 25
Full

Hourly Weather History & Observations

Time (EST) Temp. Dew Point Humidity Pressure Visibility Wind Dir Wind Speed Gust Speed Precip Events Conditions
12:54 AM -2.9 °F -8.0 °F 79% 30.50 in - North - - N/A   Unknown
1:54 AM -4.0 °F -8.0 °F 83% 30.52 in - North - - N/A   Unknown
2:54 AM -5.1 °F -9.0 °F 83% 30.50 in - North - - N/A   Unknown
3:54 AM -5.1 °F -9.0 °F 83% 30.48 in - North - - N/A   Unknown
4:54 AM -6.0 °F -9.9 °F 83% 30.49 in - North - - N/A   Unknown
5:54 AM -6.0 °F -9.9 °F 83% 30.48 in - North - - N/A   Unknown
7:54 AM -5.1 °F -9.0 °F 83% 30.48 in - North - - N/A   Unknown
8:54 AM -2.0 °F -8.0 °F 76% 30.46 in - North - - N/A   Unknown
9:54 AM 1.9 °F -6.0 °F 69% 30.43 in - North - - N/A   Unknown
10:54 AM 3.9 °F -7.1 °F 60% 30.40 in - North - - N/A   Unknown
11:54 AM 7.0 °F -0.0 °F 73% 30.35 in - North - - N/A   Unknown
12:54 PM 9.0 °F 3.9 °F 80% 30.29 in - North - - 0.02 in   Unknown
1:54 PM 10.9 °F 7.0 °F 84% 30.25 in - North - - 0.02 in   Unknown
2:54 PM 12.0 °F 8.1 °F 84% 30.20 in - North - - 0.04 in   Unknown
3:54 PM 12.0 °F 9.0 °F 88% 30.18 in - North - - 0.04 in   Unknown
4:54 PM 12.9 °F 9.0 °F 84% 30.16 in - North - - 0.05 in   Unknown
5:54 PM 12.9 °F 10.0 °F 88% 30.15 in - North - - 0.03 in   Unknown
6:54 PM 12.9 °F 10.0 °F 88% 30.13 in - North - - 0.02 in   Unknown
7:54 PM 12.9 °F 10.0 °F 88% 30.12 in - North - - 0.01 in   Unknown
8:54 PM 12.9 °F 10.0 °F 88% 30.09 in - North - - 0.04 in   Unknown
9:54 PM 14.0 °F 10.9 °F 88% 30.09 in - North - - 0.03 in   Unknown
10:54 PM 14.0 °F 10.9 °F 88% 30.09 in - North - - 0.01 in   Unknown
11:54 PM 15.1 °F 12.0 °F 88% 30.09 in - North - - N/A   Unknown